Regional Weather Roundup
Issued by NWS Charleston, SC

Current Version | Previous Version | Text Only | Print | Product List | Glossary Off
Versions: 1 2 3 4 5 6 7 8 9 10 11 12 13 14 15 16 17 18 19 20 21 22 23 24 25 26 27 28 29 30 31 32 33 34 35 36 37 38 39 40 41 42 43 44 45 46 47 48 49 50

000
ASUS42 KCHS 230225
RWRCHS

REGIONAL WEATHER ROUNDUP
NATIONAL WEATHER SERVICE CHARLESTON SC
1000 PM EDT FRI AUG 22 2014

NOTE: "FAIR" INDICATES FEW OR NO CLOUDS BELOW 12,000 FEET WITH NO
SIGNIFICANT WEATHER AND/OR OBSTRUCTIONS TO VISIBILITY.

NOT ALL STATIONS ARE QUALITY CONTROLLED BY THE NATIONAL
WEATHER SERVICE. USE DATA WITH CAUTION...ESPECIALLY
DEWPOINT OBSERVATIONS.

SCZ027-030-031-034>040-042>050-230300-
...SOUTH CAROLINA...

CITY           SKY/WX    TMP DP  RH WIND       PRES   REMARKS
N CHARLESTON   CLEAR     86  78  77 SW8       29.95S HX  98
WATERFRONT PRK   N/A     86 N/A N/A SW7         N/A
FORT JOHNSON   NOT AVBL
MOUNT PLEASANT FAIR      84  81  89 CALM      29.95S HX  98
JOHNS ISLAND   CLEAR     84  82  94 SW3       29.96S HX 101
PINOPOLIS        N/A     90  75  62 S2        29.87F HX 100
MONCKS CORNER    N/A     84  81  89 CALM      29.95S HX  98
SUMMERVILLE    FAIR      82  79  89 CALM      29.96R HX  93
BEAUFORT MCAS  CLEAR     86  77  74 W6        29.95F HX  97
BEAUFORT ARPT  FAIR      86  79  79 S3        29.95S HX  99
HILTON HEAD IS CLEAR     84  79  84 S5        29.97S HX  96
GEORGETOWN     NOT AVBL
WALTERBORO     CLEAR     82  75  78 S6        29.96S
ORANGEBURG     CLEAR     80  75  84 SW3       29.96R
BARNWELL       FAIR      82  73  74 CALM      29.96S
AIKEN          FAIR      82  72  69 CALM      30.00S
MANNING        FAIR      81 N/A N/A CALM      29.95S
KINGSTREE      NOT AVBL
COLUMBIA       CLEAR     87  71  58 S5        29.94S HX  93
SUMTER         CLEAR     84  74  70 CALM      29.94S HX  91
FLORENCE       CLEAR     83  75  77 CALM      29.94S HX  90
MYRTLE BEACH   PTCLDY    86  79  79 S9        29.96R HX  99
N MYRTLE BEACH MOCLDY    85  78  80 SW9       29.94S HX  96

$$

GAZ063-065-086>088-099>101-113>116-118-119-134-136>141-150-230300-
...GEORGIA...

CITY           SKY/WX    TMP DP  RH WIND       PRES   REMARKS
SAVANNAH ARPT  PTCLDY    85  76  74 S7        29.97R HX  94
HUNTER AAF     CLEAR     86  77  74 S7        29.95S HX  97
FORT STEWART   PTCLDY    83  74  74 NE2       29.96R
STATESBORO     NOT AVBL
SYLVANIA       CLEAR     80  77  89 CALM      29.97S
CLAXTON        FAIR      82  81  94 CALM      29.97S HX  95
THOMSON        CLEAR     80  78  92 CALM      30.03R
AUGUSTA-BUSH   CLEAR     80  72  76 CALM      29.95S
AUGUSTA-DANIEL CLEAR     91  69  48 CALM      29.98R HX  96
SWAINSBORO     FAIR      84  73  70 CALM      29.99R HX  91
VIDALIA          N/A     82  73  74 W3        29.98S
ALMA           CLEAR     81  75  82 CALM      29.98R
WAYCROSS       CLEAR     84  77  79 CALM      29.98R HX  94
JESUP            N/A     86  79  79 SW5       29.98R HX  99
BRUNSWICK      CLEAR     82  72  69 S5        29.98S
SAINT SIMONS   CLEAR     85  73  67 S7        29.98R HX  91

$$

SCZ027-028-034-036>038-045-046-048>050-GAZ119-141-230300-
...LAKE AND SUPPLEMENTAL COASTAL OBSERVATIONS...

STATION/POSITION TIME  TEMP    WIND        PRES    WAVE   SWELL
                       AIR SEA DIR/SP/G            HT/PER HT/PER/DIR
                 (UTC) (F)     (DEG/KT/KT) (MB)    (FT/S) (FT/S/D)
UPR LAKE MARION  NOT AVBL
WINYAH BAY       0200   85     210/  5     1014.0S
LAKE MURRAY      0100   86        CALM     1013.5R
ACE BASIN NERRS  0200   84        CALM     1014.0S
FORT PULASKI     0200   86     190/  3/  5 1014.9R
SAPELO ISLAND    0200   84     190/  5     1015.0S

$$

ANZ835-935-AMZ111-154-330-350-352-354-374-450-454-472-230300-
...C-MAN AND BUOY OBSERVATIONS...

STATION/POSITION TIME  TEMP    WIND        PRES    WAVE   SWELL
                       AIR SEA DIR/SP/G            HT/PER HT/PER/DIR
                 (UTC) (F)     (DEG/KT/KT) (MB)    (FT/S) (FT/S/D)
FOLLY BEACH CMAN 0200   86     210/ 13/ 14 1014.7S
BUOY 41004       0200   85 85  200/ 10/ 12 1014.1R   2/ 9   2/ 9
BUOY 41008       0200   86 86  190/ 10/ 12 1014.8S   1/10
5E ST. MARYS GA  0200      84                N/A     1/11
FRYING PAN BUOY  NOT AVBL
BUOY 41025       0200   79      10/ 12/ 14 1013.4F   2/ 7   2/ 50/ 7
CAPE LOOKOUT NC  0200   83     290/  6/  7 1013.9R
BUOY 41002       0129   82 82  250/ 12/ 12 1016.1R   3/ 4   2/150/ 9
BUOY 41010       0200   85 86  190/  6/  8 1016.7S   2/ 7   2/150/ 7
BUOY 41012       NOT AVBL
ST AUGUSTINE FL  0200   82     180/  6/  6 1016.5R
CAPERS NEARSHORE 0100   86     230/ 12/ 14   N/A
FRIPP NEARSHORE  NOT AVBL


$$



USA.gov is the U.S. government's official web portal to all federal, state and local government web resources and services.